Location: Hackbridge
(51.3833°N, 0.1500°W)
Time: 20:53:25
(UTC+00:00)

STARLINK-65 - Pass Details

Date: 13 October 2019
Orbit: 548 x 551 km, 53.0° (Epoch: 17 November)

Event Time Altitude Azimuth Distance (km) Brightness Sun altitude
Rises 19:19:52 0° 242° (WSW) 2,712 7.9 -20.6°
Reaches altitude 10° 19:22:06 10° 241° (WSW) 1,821 6.9 -20.9°
Maximum altitude 19:26:13 71° 157° (SSE) 584 3.5 -21.5°
Enters shadow 19:26:20 71° 143° (SE) 586 3.5 -21.5°
